SCP
0 0 0 0 0 0 0 0 0 0 0 0 0 0 0 0 0 0 0 0 0 0 0 0 0 0 0 0 0 0 0 0 0 0 0 0 0 0 0 0 0 0 0 0
0 0 0 0 0 0 0 0 0 0 0 0 0 0 0 0 0 0 0 0 0 0 0 0 0 0 0 0 0 0 0 0 0 0 0 0 0 0 0 0 0 0 0 0
0 0 0 0 0 0 0 0 0 0 0 0 0 0 0 0 0 0 0 0 0 0 0 0 0 0 0 0 0 0 0 0 0 0 0 0 0 0 0 0 0 0 0 0
0 0 0 0 0 0 0 0 0 0 0 0 0 0 0 0 0 0 0 0 0 0 0 0 0 0 0 0 0 0 0 0 0 0 0 0 0 0 0 0 0 0 0 0
0 0 0 0 0 0 0 0 0 0 0 0 0 0 0 0 0 0 0 0 0 0 0 0 0 0 0 0 0 0 0 0 0 0 0 0 0 0 0 0 0 0 0 0
0 0 0 0 0 0 0 0 0 0 0 0 0 0 0 0 0 0 0 0 0 0 0 0 0 0 0 0 0 0 0 0 0 0 0 0 0 0 0 0 0 0 0 0
0 0 0 0 0 0 0 0 0 0 0 0 0 0 0 0 0 0 0 0 0 0 0 0 0 0 0 0 0 0 0 0 0 0 0 0 0 0 0 0 0 0 0 0
0 0 0 0 0 0 0 0 0 0 0 0 0 0 0 0 0 0 0 0 0 0 0 0 0 0 0 0 0 0 0 0 0 0 0 0 0 0 0 0 0 0 0 0
0 0 0 0 0 0 0 0 0 0 0 0 0 0 0 0 0 0 0 0 0 0 0 0 0 0 0 0 0 0 0 0 0 0 0 0 0 0 0 0 0 0 0 0
0 0 0 0 0 0 0 0 0 0 0 0 0 0 0 0 0 0 0 0 0 0 0 0 0 0 0 0 0 0 0 0 0 0 0 0 0 0 0 0 0 0 0 0
0 0 0 0 0 0 0 0 0 0 0 0 0 0 0 0 0 0 0 0 0 0 0 0 0 0 0 0 0 0 0 0 0 0 0 0 0 0 0 0 0 0 0 0
0 0 0 0 0 0 0 0 0 0 0 0 0 0 0 0 0 0 0 0 0 0 0 0 0 0 0 0 0 0 0 0 0 0 0 0 0 0 0 0 0 0 0 0
0 0 0 0 0 0 0 0 0 0 0 0 0 0 0 0 0 0 0 0 0 0 0 0 0 0 0 0 0 0 0 0 0 0 0 0 0 0 0 0 0 0 0 0
0 0 0 0 0 0 0 0 0 0 0 0 0 0 0 0 0 0 0 0 0 0 0 0 0 0 0 0 0 0 0 0 0 0 0 0 0 0 0 0 0 0 0 0
0 0 0 0 0 0 0 0 0 0 0 0 0 0 0 0 0 0 0 0 0 0 0 0 0 0 0 0 0 0 0 0 0 0 0 0 0 0 0 0 0 0 0 0
0 0 0 0 0 0 0 0 0 0 0 0 0 0 0 0 0 0 0 0 0 0 0 0 0 0 0 0 0 0 0 0 0 0 0 0 0 0 0 0 0 0 0 0
0 0 0 0 0 0 0 0 0 0 0 0 0 0 0 0 0 0 0 0 0 0 0 0 0 0 0 0 0 0 0 0 0 0 0 0 0 0 0 0 0 0 0 0
0 0 0 0 0 0 0 0 0 0 0 0 0 0 0 0 0 0 0 0 0 0 0 0 0 0 0 0 0 0 0 0 0 0 0 0 0 0 0 0 0 0 0 0
0 0 0 0 0 0 0 0 0 0 0 0 0 0 0 0 0 0 0 0 0 0 0 0 0 0 0 0 0 0 0 0 0 0 0 0 0 0 0 0 0 0 0 0
0 0 0 0 0 0 0 0 0 0 0 0 0 0 0 0 0 0 0 0 0 0 0 0 0 0 0 0 0 0 0 0 0 0 0 0 0 0 0 0 0 0 0 0
0 0 0 0 0 0 0 0 0 0 0 0 0 0 0 0 0 0 0 0 0 0 0 0 0 0 0 0 0 0 0 0 0 0 0 0 0 0 0 0 0 0 0 0
0 0 0 0 0 0 0 0 0 0 0 0 0 0 0 0 0 0 0 0 0 0 0 0 0 0 0 0 0 0 0 0 0 0 0 0 0 0 0 0 0 0 0 0
0 0 0 0 0 0 0 0 0 0 0 0 0 0 0 0 0 0 0 0 0 0 0 0 0 0 0 0 0 0 0 0 0 0 0 0 0 0 0 0 0 0 0 0
0 0 0 0 0 0 0 0 0 0 0 0 0 0 0 0 0 0 0 0 0 0 0 0 0 0 0 0 0 0 0 0 0 0 0 0 0 0 0 0 0 0 0 0
0 0 0 0 0 0 0 0 0 0 0 0 0 0 0 0 0 0 0 0 0 0 0 0 0 0 0 0 0 0 0 0 0 0 0 0 0 0 0 0 0 0 0 0
0 0 0 0 0 0 0 0 0 0 0 0 0 0 0 0 0 0 0 0 0 0 0 0 0 0 0 0 0 0 0 0 0 0 0 0 0 0 0 0 0 0 0 0
Wind_Speed
2 6 14 16 17 14 9 12 18 16 3 8 16 21 24 22 21 24 25 20 17 20 19 19 20 19 18 18 17 16 14 13 10 7 5 4 3 2 2 2 5 5 5 6
5 17 20 7 6 8 10 15 20 13 3 7 13 21 23 22 25 25 25 21 15 16 16 18 19 20 20 20 18 17 16 14 11 7 4 2 1 1 2 4 6 6 6 6
16 6 1 8 9 11 15 19 18 12 4 5 9 17 15 15 16 19 22 18 14 16 18 20 21 22 22 21 20 16 16 13 11 9 5 4 2 2 4 6 5 5 6 7
14 6 7 8 12 15 14 10 11 8 9 8 4 20 12 13 14 19 23 17 14 14 16 18 21 23 23 21 19 18 16 14 11 9 7 7 5 6 5 4 4 6 7 8
11 7 9 13 11 12 6 4 3 4 8 10 8 18 16 8 13 21 21 15 14 13 15 18 21 22 21 20 18 17 16 15 13 12 10 9 7 6 4 5 8 8 7 8
8 4 7 7 2 5 7 5 3 1 4 14 14 19 17 10 14 16 16 9 11 11 12 14 15 16 18 19 18 17 17 16 15 14 12 11 10 9 9 9 7 7 6 7
9 7 6 6 7 5 7 6 6 8 8 14 4 12 17 10 15 16 14 6 7 8 9 12 16 19 20 21 21 19 19 17 16 15 14 13 12 11 10 8 7 7 6 7
11 14 14 13 14 13 13 12 10 11 13 18 5 16 12 8 14 15 13 8 4 6 8 11 16 18 19 21 22 21 21 19 17 15 13 12 11 8 6 7 7 7 7 7
15 14 4 6 2 11 11 13 8 6 8 15 19 17 6 8 14 16 15 15 15 11 11 12 14 17 19 22 24 23 22 19 17 15 13 12 10 9 7 7 6 6 7 8
11 10 4 4 3 2 4 6 6 9 8 19 29 32 17 12 19 15 13 16 17 12 11 12 14 17 19 20 21 22 21 20 17 15 12 9 9 8 7 6 7 8 9 9
12 12 5 6 16 17 12 9 10 8 8 11 20 23 1 7 9 12 16 16 15 15 13 12 13 15 17 17 20 21 21 19 17 15 12 11 9 8 7 6 7 7 8 9
12 8 11 15 4 6 13 17 16 13 12 12 17 36 6 6 6 8 11 12 12 13 12 11 12 13 16 19 20 21 20 19 17 15 13 11 9 8 7 7 7 7 8 8
12 9 7 10 7 6 11 14 18 19 12 17 21 33 5 5 2 4 7 9 9 12 12 11 11 14 17 18 19 20 20 19 16 14 13 11 9 8 7 7 6 7 7 8
6 10 18 27 21 8 10 12 17 20 16 21 28 35 39 25 12 12 12 14 15 15 15 15 15 15 16 17 19 20 20 18 16 14 12 11 9 8 7 6 6 6 7 8
4 11 19 24 27 14 13 16 21 26 27 31 34 34 41 39 17 17 18 17 18 17 18 20 17 16 17 18 19 20 19 17 15 14 12 10 8 7 6 6 6 6 6 8
6 11 17 24 27 23 15 24 35 35 35 38 36 41 44 36 31 30 29 21 23 24 21 18 17 17 19 21 21 21 20 17 15 14 12 10 9 8 6 5 5 6 6 7
10 12 13 20 27 22 21 32 40 38 40 35 35 41 40 35 34 32 30 21 20 25 20 14 17 20 20 21 22 22 20 17 16 14 12 11 10 8 6 5 5 6 6 7
15 17 13 12 17 26 24 26 33 39 41 34 31 37 36 36 34 30 24 16 22 23 19 13 15 17 18 19 21 20 19 18 16 14 12 10 9 7 6 5 5 5 4 6
27 24 16 11 20 23 21 23 26 27 30 31 34 35 36 36 17 29 26 17 22 24 19 11 11 14 18 21 21 21 19 17 16 14 12 10 9 7 6 5 4 3 4 6
27 24 21 19 20 21 23 26 18 10 19 36 35 33 36 24 14 27 22 12 18 16 7 6 11 14 18 20 21 21 20 18 17 15 12 10 8 7 6 4 2 2 4 6
16 21 28 30 29 21 19 11 14 16 26 28 26 27 26 23 22 24 17 4 5 3 6 11 15 16 17 19 21 21 19 17 14 13 12 10 8 6 5 3 1 2 4 5
22 18 22 24 29 26 20 16 22 30 28 21 17 14 12 16 18 17 13 8 7 8 10 14 15 15 17 20 21 20 17 14 13 12 11 9 7 6 5 3 1 1 3 5
24 24 19 18 17 10 17 27 30 28 26 22 20 20 15 15 18 16 12 10 11 11 12 14 15 17 16 18 18 19 16 15 14 12 10 9 8 6 4 3 2 1 2 4
8 10 14 15 12 10 10 11 17 21 22 21 20 18 13 15 17 15 11 10 12 13 15 14 16 17 17 16 15 16 18 16 14 13 11 10 8 7 5 3 2 1 2 3
17 14 16 20 19 20 15 12 10 13 14 15 16 15 15 15 15 15 12 13 14 15 16 17 18 19 19 18 17 18 18 18 16 13 10 9 7 6 5 4 2 0 1 4
21 24 25 26 24 22 18 10 13 17 19 18 20 22 21 17 19 17 15 14 15 17 18 19 20 21 21 19 18 17 16 17 16 13 10 7 6 5 4 4 3 2 3 7
Wind_Direction
169 221 236 233 226 252 267 259 267 271 187 215 246 262 274 284 278 270 270 264 239 232 224 203 196 193 189 187 187 185 182 180 179 181 187 188 188 190 239 244 252 261 277 287
189 238 252 252 215 224 236 254 263 272 198 231 264 268 271 270 266 268 273 274 252 231 219 203 195 194 195 191 190 189 189 185 186 181 166 154 156 254 263 256 245 256 279 288
223 247 193 186 203 213 229 239 252 263 289 235 281 276 249 250 254 265 265 262 250 225 210 199 197 198 197 196 194 191 190 187 183 171 159 153 190 231 228 227 233 254 269 270
238 244 169 199 220 213 237 238 248 257 276 277 291 290 266 246 253 260 265 257 232 216 205 197 197 199 199 197 194 193 187 183 178 171 178 188 205 221 232 254 269 274 272 273
224 201 193 216 230 201 228 91 177 236 259 274 242 269 279 205 249 261 260 251 223 208 198 198 198 198 196 195 194 194 186 181 176 177 184 193 212 228 247 262 271 279 284 277
253 206 212 217 67 166 129 113 107 183 256 262 248 249 276 192 224 246 252 227 204 192 194 198 195 193 193 193 195 195 188 183 179 180 185 195 206 215 229 239 255 268 275 278
234 218 204 159 133 138 170 192 262 258 241 261 192 238 265 219 224 235 249 230 178 171 182 186 187 190 192 194 195 195 191 187 182 183 188 194 202 212 226 237 252 262 269 271
241 245 198 192 201 183 191 200 219 257 270 282 211 249 270 243 252 261 271 278 243 214 204 197 194 192 192 194 196 195 194 190 184 185 188 192 198 206 217 229 242 256 264 273
230 252 120 189 216 168 174 211 227 241 286 286 269 256 246 250 250 243 247 251 248 237 219 208 198 196 194 195 197 196 194 190 185 183 184 190 194 203 214 226 245 258 263 274
218 245 170 123 121 269 216 164 157 194 236 268 278 279 275 218 239 232 228 233 241 235 224 212 203 201 199 198 196 195 194 190 183 179 181 183 189 201 212 224 237 249 262 268
209 220 194 176 203 198 169 186 208 208 221 243 276 276 173 198 210 217 222 229 235 229 223 214 208 204 201 196 194 193 193 188 180 175 174 179 186 195 208 225 237 250 261 270
200 208 239 231 204 244 205 206 198 214 225 234 254 268 206 241 191 201 215 225 231 227 217 213 208 200 198 197 193 191 190 187 179 170 171 179 182 192 211 228 243 257 267 275
155 172 232 252 224 188 217 225 225 236 246 238 243 266 289 195 187 227 250 252 234 221 218 216 209 204 202 197 191 189 189 186 174 166 169 174 181 195 214 233 249 261 272 281
175 197 223 241 252 173 198 220 225 228 239 249 248 261 276 269 253 252 242 235 232 232 234 231 220 211 203 196 191 188 188 182 170 164 167 174 183 196 214 235 252 265 278 284
172 236 246 257 266 256 243 248 240 233 239 251 259 264 267 274 269 265 261 254 253 251 246 242 230 212 201 194 190 186 184 177 166 162 167 175 181 196 215 234 253 271 280 281
198 239 249 254 256 258 261 266 266 259 253 253 259 263 264 271 277 275 270 261 262 264 256 241 222 210 201 194 187 182 180 172 162 162 166 169 181 195 211 230 256 271 277 283
205 217 226 242 244 253 244 241 248 252 252 251 252 256 265 269 266 264 269 270 264 267 265 238 213 207 200 191 182 179 173 164 161 163 165 174 183 191 203 224 245 258 277 290
222 223 231 243 237 236 234 239 241 249 255 254 254 259 264 267 272 277 274 260 262 266 266 244 215 204 190 179 174 169 165 164 162 163 168 175 180 185 197 220 239 262 285 296
225 227 232 231 239 248 249 247 240 246 258 260 257 260 264 266 278 277 268 241 251 260 264 251 203 185 173 170 165 161 166 162 161 166 171 173 175 179 198 219 237 283 304 303
221 222 230 234 239 238 237 243 238 218 254 254 253 255 260 266 260 269 273 235 239 248 246 170 157 159 164 161 158 163 166 164 168 167 162 161 166 178 196 209 252 303 305 300
207 216 225 235 242 242 238 232 138 205 244 250 246 245 251 251 242 256 271 233 228 198 159 154 154 159 161 158 162 167 166 170 159 147 145 151 161 176 186 195 254 298 307 313
214 216 223 230 239 240 214 178 201 232 244 253 255 250 242 249 256 256 253 220 189 173 163 159 157 159 158 164 167 163 163 148 138 139 141 146 159 173 171 179 205 292 324 316
230 231 231 225 235 235 212 210 223 238 248 252 255 258 251 251 257 256 240 213 194 182 171 166 160 156 161 168 164 156 145 140 139 140 143 151 162 167 162 166 143 54 352 323
270 297 275 266 262 271 275 263 248 248 252 256 260 264 262 253 257 254 236 204 191 181 174 166 160 159 163 164 152 143 142 143 144 147 152 157 159 156 153 159 126 84 340 322
291 299 291 285 285 288 279 275 276 278 281 282 281 278 272 263 256 250 235 210 195 183 175 170 168 165 162 158 145 145 147 147 148 152 156 152 147 141 137 119 112 190 309 299
266 271 272 275 284 286 291 312 315 302 293 285 282 280 273 259 258 254 240 217 193 182 174 173 171 165 160 155 150 149 152 152 150 153 155 149 142 134 121 111 116 79 11 337